This is the latest recevied weather packets stored in our database for station/object KF0PEC-15. If no packets are shown the sender has not sent any weather packets the latest 1 day(s).
| Time | Temp. | Humidity | Pressure | Rain* | Wind** | Luminosity | Snow |
|---|---|---|---|---|---|---|---|
| 1778082030 | 0° C | 87% | 1027.2 hPa | 0 mm | - | 439 W/m² | - |
| 1778081430 | 0° C | 85% | 1026.8 hPa | 0 mm | - | 344 W/m² | - |
| 1778080870 | 0.56° C | 84% | 1026.4 hPa | 0 mm | - | 383 W/m² | - |
| 1778080330 | 0.56° C | 84% | 1026.6 hPa | 0 mm | - | 398 W/m² | - |
| 1778079850 | 0.56° C | 83% | 1026.4 hPa | 0 mm | - | 416 W/m² | - |
| 1778079355 | 0.56° C | 84% | 1026.4 hPa | 0 mm | - | 396 W/m² | - |
| 1778078810 | 0.56° C | 84% | 1026.5 hPa | 0 mm | - | 465 W/m² | - |
| 1778078312 | 0° C | 85% | 1026.5 hPa | 0 mm | - | 331 W/m² | - |
| 1778077740 | 0° C | 85% | 1026.6 hPa | 0 mm | - | 333 W/m² | - |
| 1778077215 | 0° C | 86% | 1026.7 hPa | 0 mm | - | 306 W/m² | - |
| 1778076690 | 0° C | 87% | 1026.8 hPa | 0 mm | - | 234 W/m² | - |
| 1778076180 | 0° C | 88% | 1027 hPa | 0 mm | - | 255 W/m² | - |
| 1778075665 | -0.56° C | 88% | 1026.9 hPa | 0 mm | - | 292 W/m² | - |
| 1778075070 | -0.56° C | 88% | 1026.9 hPa | 0 mm | - | 327 W/m² | - |
| 1778074580 | -0.56° C | 88% | 1026.7 hPa | 0 mm | - | 247 W/m² | - |
| 1778074000 | 0° C | 89% | 1026.4 hPa | 0 mm | - | 182 W/m² | - |
| 1778072952 | -0.56° C | 91% | 1026.5 hPa | 0 mm | - | 116 W/m² | - |
| 1778072360 | -1.11° C | 92% | 1026.5 hPa | 0 mm | - | 106 W/m² | - |
| 1778071795 | -1.11° C | 93% | 1026.5 hPa | 0 mm | - | 563 W/m² | - |
| 1778071212 | -1.11° C | 92% | 1026.5 hPa | 0 mm | - | 320 W/m² | - |
| 1778070660 | -1.11° C | 92% | 1026.3 hPa | 0 mm | - | 223 W/m² | - |
| 1778069505 | -1.11° C | 92% | 1025.9 hPa | 0 mm | - | 48 W/m² | - |
| 1778069020 | -1.11° C | 93% | 1025.5 hPa | 0 mm | - | 23 W/m² | - |
| 1778068485 | -0.56° C | 93% | 1025.7 hPa | 0 mm | - | 4 W/m² | - |
| 1778067972 | -0.56° C | 93% | 1025.7 hPa | 0 mm | - | 0 W/m² | - |
* Rain latest hour (hover to see other rain measurements)
** Current wind speed in m/s (hover to see current wind gust speed)